TimeEDT,TemperatureF,Dew PointF,Humidity,Sea Level PressureIn,VisibilityMPH,Wind Direction,Wind SpeedMPH,Gust SpeedMPH,PrecipitationIn,Events,Conditions,WindDirDegrees,DateUTC
12:53 AM,64.0,54.0,70,29.86,10.0,ESE,3.5,-,N/A,,Clear,110,2013-04-11 04:53:00
1:53 AM,62.1,53.1,72,29.88,10.0,NNE,4.6,-,N/A,,Clear,20,2013-04-11 05:53:00
2:53 AM,60.1,53.1,78,29.87,10.0,Calm,Calm,-,N/A,,Clear,0,2013-04-11 06:53:00
3:53 AM,59.0,53.1,81,29.85,10.0,Calm,Calm,-,N/A,,Clear,0,2013-04-11 07:53:00
4:53 AM,55.9,52.0,87,29.83,10.0,Calm,Calm,-,N/A,,Clear,0,2013-04-11 08:53:00
5:53 AM,61.0,52.0,72,29.82,10.0,Variable,4.6,-,N/A,,Partly Cloudy,0,2013-04-11 09:53:00
6:53 AM,57.9,52.0,81,29.83,10.0,SSE,3.5,-,N/A,,Partly Cloudy,150,2013-04-11 10:53:00
7:53 AM,59.0,54.0,83,29.84,10.0,Calm,Calm,-,N/A,,Mostly Cloudy,0,2013-04-11 11:53:00
8:53 AM,63.0,54.0,72,29.85,10.0,SSE,4.6,-,N/A,,Mostly Cloudy,150,2013-04-11 12:53:00
9:53 AM,71.1,54.0,55,29.84,10.0,South,8.1,-,N/A,,Scattered Clouds,170,2013-04-11 13:53:00
10:53 AM,75.0,54.0,48,29.84,10.0,South,8.1,-,N/A,,Mostly Cloudy,190,2013-04-11 14:53:00
11:53 AM,78.1,54.0,43,29.83,10.0,West,15.0,21.9,N/A,,Clear,260,2013-04-11 15:53:00
12:42 PM,75.2,53.6,47,29.85,10.0,NW,9.2,23.0,N/A,,Overcast,310,2013-04-11 16:42:00
1:53 PM,78.1,55.0,45,29.79,10.0,North,4.6,-,N/A,,Clear,350,2013-04-11 17:53:00
2:53 PM,77.0,54.0,45,29.77,10.0,Calm,Calm,-,N/A,,Mostly Cloudy,0,2013-04-11 18:53:00
3:53 PM,77.0,55.0,47,29.72,10.0,Variable,4.6,-,N/A,,Clear,0,2013-04-11 19:53:00
4:53 PM,78.1,55.0,45,29.69,10.0,SSW,4.6,-,N/A,,Clear,210,2013-04-11 20:53:00
5:53 PM,78.1,55.0,45,29.67,10.0,NNE,4.6,-,N/A,,Clear,20,2013-04-11 21:53:00
6:53 PM,77.0,55.0,47,29.65,10.0,ENE,5.8,-,N/A,,Clear,70,2013-04-11 22:53:00
7:53 PM,75.0,55.0,50,29.61,10.0,ENE,5.8,-,N/A,,Clear,70,2013-04-11 23:53:00
8:53 PM,73.9,55.0,52,29.58,10.0,East,8.1,-,N/A,,Clear,80,2013-04-12 00:53:00
9:53 PM,72.0,55.0,55,29.57,10.0,Calm,Calm,-,N/A,,Mostly Cloudy,0,2013-04-12 01:53:00
10:53 PM,68.0,55.9,65,29.57,10.0,West,3.5,-,N/A,,Overcast,270,2013-04-12 02:53:00
11:53 PM,71.1,54.0,55,29.60,10.0,West,15.0,-,N/A,,Mostly Cloudy,260,2013-04-12 03:53:00